ORBCOMM FM12 [+]

Last updated on July 6, 2021, 3:36 p.m. UTC

1 25115U 97084D   21187.02774205  .00000085  00000-0  72716-4 0  9998
2 25115  45.0178  42.9755 0004967 147.7409 212.3745 14.39224140233452
UTC
Height (km)
Latitude
Longitude
Inclination
Orbital Period
UTC large
Height (km)
Speed (km/s)
/
Latitude / Longitude
Inclination (degrees)
Orbital Period (minutes)
Azimuth
Elevation
Range (km)
Doppler Factor
iOS Compass Heading
iOS Angle